Showing default

QIANFAN-27, 61560

Orbit data source: Space-Track

QIANFAN-27, 61560 is a Chinese payload satellite in LEO that was launched on Tue, 15 Oct 2024 UTC via a CHANG ZHENG 6A launch vehicle from the Taiyaun Space Center, China (TSC). Payloads include a variety of satellites, spacecraft, and rockets equipped with specific instruments for various scientific and technological missions. These include communications satellites like Starlink; space stations such as the ISS; scientific satellites like the Hubble; Earth observation satellites from companies like Planet Labs, Umbra, and HawkEye 360; GPS; miniature CubeSats for education and research; and military/defense satellites.

Loading next visibility...
QIANFAN-27 details
Identifier
61560, 2024-185J
Orbit
LEO
Last TLE update17 hours ago
Origin
Flag of CNYUANX (CN / PRC)
ManufacturerGESIH/SECM
MissionOperational Commercial Communications
Bus & MotorQIANFAN, Unknown motor
Mass300 kg wet, ~300 kg dry
Launch date (UTC)
2024-10-15 (4 months ago)
Launch vehicle
CHANG ZHENG 6A
Launch site
Taiyaun Space Center, China (TSC)
Object type
Payload
Rocket body
Debris
Shape & HBRBox + 1 Pan, 10 m
Radar Cross Section13.200 m², Large (>1 m²)

Expand to show TLE details & history

TLE from 17 hours ago
0 QIANFAN-27
1 61560U 24185J   25035.57865642  .00001819  00000-0  74125-3 0  9997
2 61560  88.9878 113.3605 0008183 211.4981 148.5724 14.27043342 25786
Epoch: 2025-02-04T13:53Z
Definitive object data (Epoch: 2025-02-04T13:53:15.914Z)
Latitude-0.00004°
Longitude130.06226°
Altitude809.71 km
Speed7.446 km/s
True Right ascension07h 33m 26s
True Declination0° 00' 00"
Sunlit
Object was in full shadow at TLE epoch
Visualization TLE readout
Latitude2.79924°
Longitude130.03001°
Altitude809.633 km
Speed7.446 km/s
Apparent Right ascension05h 28m 36s
Apparent Declination-51° 35' 24"
Sunlit
Object is in full shadow
Visualization observer readout
Local Sidereal Time08:45:59
Azimuth208.705° SW
Elevation-11.09°
Doppler factor1
Orbital elements
Apogee altitude804.445 km
Perigee altitude792.699 km
Semi-major axis7,176.709 km
Eccentricity0.0008183
Inclination88.9878°
RAAN113.3605°
Arg. of periapsis211.4981°
True anomaly148.62125°
Mean anomaly148.5724°
Eccentric anomaly148.59683°
Mean motion3.56989 °/min
BSTAR0.00074125
Orbital period100.84 mins
Loading maneuver chart data...
Loading historical data...
Loading historical data...
Loading historical data...
Loading historical data...
Loading historical data...
Loading historical data...
Loading historical data...

QIANFAN-27 Visibility forecast

Observer location: undefined°, undefined

Span
Click to sort rows by Start time (UTC) header in descending order
Start Az.
Max El. time (UTC)
Max El. Az.
Max El.
End time (UTC)
End Az.
6 mins2025-02-05 06:51:46.307Z247.822° W2025-02-05 06:54:46.307Z284.551° WNW15.719°2025-02-05 06:57:46.307Z319.372° NNW
9 mins2025-02-05 17:23:46.307Z359.629° N2025-02-05 17:27:46.307Z339.959° N44.41°2025-02-05 17:32:46.307Z184.49° SSW
8 mins2025-02-06 04:43:46.307Z135.846° SSE2025-02-06 04:46:46.307Z87.511° E29.905°2025-02-06 04:51:46.307Z17.338° NNE
7 mins2025-02-06 06:24:46.307Z231.243° WSW2025-02-06 06:27:46.307Z274.415° WNW23.673°2025-02-06 06:31:46.307Z329.658° NNW
|